Regional Weather Roundup
Issued by NWS Albany, NY

Home | Current Version | Previous Version | Text Only | Print | Product List | Glossary On
Versions: 1 2 3 4 5 6 7 8 9 10 11 12 13 14 15 16 17 18 19 20 21 22 23 24 25 26 27 28 29 30 31 32 33 34 35 36 37 38 39 40 41 42 43 44 45 46 47 48 49 50
000
ASUS41 KALY 011810
RWRALY

NEW YORK STATE HOURLY WEATHER ROUNDUP
NATIONAL WEATHER SERVICE ALBANY NY
200 PM EDT WED JUL 01 2015

NOTE: "FAIR" INDICATES FEW OR NO CLOUDS BELOW 12,000 FEET WITH NO
SIGNIFICANT WEATHER AND/OR NO OBSTRUCTIONS TO VISIBILITY.

NYZ032-033-038>043-046>054-057>066-NYZ062>081-011900-
EAST


CITY           SKY/WX    TMP DP  RH WIND       PRES   REMARKS
ALBANY         PTSUNNY   79  63  57 SW12      29.70F
GLENS FALLS    PTSUNNY   72  62  71 CALM      29.69S
POUGHKEEPSIE   MOSUNNY   79  61  53 SW10G20   29.75F
NEWBURGH       MOSUNNY   77  66  69 W12G21    29.78F
WHITE PLAINS   CLOUDY    79  62  56 VRB6      29.78S
ISLIP          MOSUNNY   79  65  62 SW16G29   29.77F
NEW YORK CITY  PTSUNNY   81  60  48 SW14G21   29.77F
CENTRAL PARK   MOSUNNY   79  62  56 W5        29.81F
$$

NYZ005>009-017-018-044>046-055-056-011900-
CENTRAL


CITY           SKY/WX    TMP DP  RH WIND       PRES   REMARKS
FULTON         LGT RAIN  65  60  84 W12       29.73R
SYRACUSE       TSTM      65  63  93 W13       29.73R VSB 3/4
ROME           PTSUNNY   72  63  73 W14       29.71S
ELMIRA         PTSUNNY   74  61  63 W16G23    29.76S
BINGHAMTON       N/A     68  64  87 SW12      29.78S
MONTICELLO     PTSUNNY   73  63  68 SW9G20    29.81F
$$

NYZ026>034-041>043-011900-
NORTH


CITY           SKY/WX    TMP DP  RH WIND       PRES   REMARKS
WATERTOWN      PTSUNNY   66  62  87 W15       29.68S FOG
FORT DRUM      NOT AVBL
MASSENA        CLOUDY    69  63  81 SW12      29.63S
SARANAC LAKE   CLOUDY    65  61  87 SW10      29.68S
PLATTSBURGH    LGT RAIN  67  65  93 SE5       29.62F FOG
$$

NYZ001>004-010>016-019>021-011900-
WEST


CITY           SKY/WX    TMP DP  RH WIND       PRES   REMARKS
NIAGARA FALLS  PTSUNNY   73  56  54 NW17      29.80R
BUFFALO        PTSUNNY   65  59  81 SW14G25   29.82R
DUNKIRK        CLOUDY    65  59  81 SW17      29.86R
JAMESTOWN      CLOUDY    64  55  72 W16       29.90R
WELLSVILLE     CLOUDY    67  56  67 W18G28    29.87R
ROCHESTER      CLOUDY    69  58  67 NW18G24   29.77R
PENN YAN       MOSUNNY   73  59  61 W17G29    29.76S
$$

             KEY
       WCI = WIND CHILL INDEX
       VSB = VISIBILITY
       HX  = HEAT INDEX
$$



USA.gov is the U.S. government's official web portal to all federal, state and local government web resources and services.